Index of /metro/warrant/files/th-7

[ICO]NameLast modifiedSizeDescription

[PARENTDIR]Parent Directory  -  
[DIR]190+00.218 - 21st Ave N/2010-01-26 08:27 -  
[DIR]184+00.568 - Albans Bay Rd/2010-01-26 08:28 -  
[DIR]180+00.946 - Arbor Ave/2010-01-26 08:30 -  
[DIR]183+00.255 - Arey Lane/2010-01-26 08:31 -  
[DIR]189+00.066 - Baker Rd - CSAH 60/2010-01-26 08:32 -  
[DIR]177+00.945 - Baycliff Rd/2010-01-26 08:33 -  
[DIR]186+00.441 - Bayswater Rd/2010-01-26 08:54 -  
[DIR]178+00.375 - Bayview Drive/2010-01-26 08:55 -  
[DIR]173+00.295 - Bell St/2010-01-26 08:55 -  
[DIR]193+00.651 - Brunswick Ave/2010-01-26 08:57 -  
[DIR]171+00.992 - Buck Lake Rd/2010-01-26 09:11 -  
[DIR]182+00.528 - Chaska Rd - Water St/2010-01-26 09:11 -  
[DIR]182+00.170 - city st/2010-01-26 09:13 -  
[DIR]186+00.877 - Clear Springs Rd /2010-01-26 09:14 -  
[DIR]177+00.641 - Cosamita Rd/2010-01-26 09:15 -  
[DIR]190+00.206 - Cottage Lane /2010-01-26 09:16 -  
[DIR]184+00.263 - Covington Rd /2010-01-26 09:16 -  
[DIR]171+00.181 - Co Rd 155 /2010-01-26 09:17 -  
[DIR]173+00.945 - Creekview Circle/2010-01-26 09:27 -  
[DIR]180+00.734 - Cypress Dr/2010-01-26 09:56 -  
[DIR]193+00.494 - Dakota Ave/2010-01-26 09:57 -  
[DIR]185+00.680 - Delton Ave/2010-01-26 09:58 -  
[DIR]183+00.296 - Division St/2010-01-26 09:59 -  
[DIR]180+00.671 - Dogwood Ave/2010-01-26 09:59 -  
[DIR]188+00.665 - Ellerdale Rd/2010-01-26 10:00 -  
[DIR]182+00.843 - Elm Place/2010-01-26 10:03 -  
[DIR]187+00.376 - Fairhills Rd/2010-01-26 10:29 -  
[DIR]180+00.549 - Firtree Ave/2010-01-26 10:30 -  
[DIR]179+00.039 - Fox Glove Circle/2010-01-26 10:31 -  
[DIR]180+00.458 - Greenbriar Ave/2010-01-26 10:33 -  
[DIR]174+00.090 - Grimm Rd/2010-01-26 10:34 -  
[DIR]187+00.759 - Highland Rd/2010-01-26 10:35 -  
[DIR]186+00.986 - Highwood Drive/2010-01-26 10:36 -  
[DIR]188+00.873 - I 494/2010-01-26 10:37 -  
[DIR]178+00.616 - Iris /2010-01-26 10:41 -  
[DIR]180+00.338 - Ironwood Rd/2010-01-26 10:42 -  
[DIR]188+00.479 - Kings Drive/2010-01-26 10:43 -  
[DIR]181+00.848 - Lake Linden Drive/2010-01-26 10:45 -  
[DIR]189+00.602 - Lake Rd/2010-01-26 10:45 -  
[DIR]179+00.611 - Leslie Curve /2010-01-26 10:47 -  
[DIR]187+00.250 - Linnea Lane/2010-01-26 14:06 -  
[DIR]188+00.500 - Loretta Lane/2010-01-26 14:07 -  
[DIR]185+00.958 - Lynwood Terrace/2010-01-26 14:10 -  
[DIR]172+00.584 - Maplewood Rd/2010-01-26 14:12 -  
[DIR]182+00.907 - Morse Ave/2010-01-26 14:12 -  
[DIR]174+00.910 - Oak Rd/2010-01-26 14:13 -  
[DIR]173+00.261 - Oakland Ave/2010-01-26 14:16 -  
[DIR]185+00.841 - Old Excelsior Blvd/2010-01-26 14:18 -  
[DIR]181+00.776 - Oriole Ave/2010-01-26 14:19 -  
[DIR]169+00.004 - Oxford Ave/2010-01-26 14:26 -  
[DIR]179+00.549 - Pipewood Curve/2010-01-26 14:27 -  
[DIR]181+00.230 - Pleasant Ave/2010-01-26 14:28 -  
[DIR]168+00.505 - Polk Ave/2010-01-26 14:29 -  
[DIR]192+00.682 - Quebec Ave/2010-01-26 14:30 -  
[DIR]183+00.821 - Radisson Inn Rd/2010-01-26 14:30 -  
[DIR]179+00.216 - Recreational Trail/2010-01-26 14:31 -  
[DIR]186+00.760 - Saddlewood Drive/2010-01-26 14:34 -  
[DIR]181+00.372 - Sandpiper Ave/2010-01-26 14:35 -  
[DIR]180+00.973 - Seamans Drive/2010-01-26 14:36 -  
[DIR]180+00.579 - Shorewood Oaks Dr/2010-01-27 08:19 -  
[DIR]173+00.802 - Six Mile Creek Rd/2010-01-27 08:20 -  
[DIR]173+00.460 - Steiner Blvd/2010-01-27 08:23 -  
[DIR]187+00.096 - Temple Rd/2010-01-27 08:23 -  
[DIR]172+00.910 - Tower St/2010-01-27 08:33 -  
[DIR]173+00.977 - Viking Rd/2010-01-27 09:01 -  
[DIR]193+00.270 - W Lake St/2010-01-27 09:03 -  
[DIR]181+00.237 - Washta Bay Rd/2010-01-27 09:04 -  
[DIR]172+00.412 - Wildwood Ave /2010-01-27 09:05 -  
[DIR]179+00.205 - Will-o-the-wind Trail/2010-01-27 09:06 -  
[DIR]187+00.370 - Wilson St/2010-01-27 09:08 -  
[DIR]181+00.505 - Wood Drive/2010-01-27 09:11 -  
[DIR]188+00.297 - Woodhill Rd/2010-01-27 09:12 -  
[DIR]177+00.749 - Zumbra Drive/2010-01-27 09:13 -  
[DIR]186+00.196 - CSAH 101 /2011-03-10 08:39 -  
[DIR]182+00.648 - Galpin Blvd/2015-10-06 15:24 -  
[DIR]193+00.050 - Louisiana Ave/2015-10-06 15:24 -  
[DIR]193+00.705 - Wooddale Ave/2015-10-06 15:24 -  
[DIR]173+00.051 - Main St - CSAH 92/2016-08-04 14:36 -  
[DIR]169+00.505 - CSAH 10/2018-01-29 14:30 -  
[DIR]178+00.534 - Rolling Acres Rd - CSAH 13/2018-01-29 14:30 -  
[DIR]180+00.841 - Eureka Rd/2018-01-29 14:30 -  
[DIR]166+00.972 - TH 25/2018-01-29 14:30 -  
[DIR]175+00.259 - Victoria Drive - CSAH 11/2018-01-29 14:30 -  
[DIR]180+00.171 - Minnewashta Pkwy - Church Rd/2018-01-29 14:30 -  
[DIR]194+00.248 - CSAH-25 at Ottawa Ave/2018-05-03 11:43 -  
[DIR]194+00.248 - TH 100/2018-05-03 11:47 -  
[DIR]192+00.486 - Texas Ave/2018-05-03 11:48 -  
[DIR]192+00.104 - Aquila Ave - Blake Rd - CSAH 20/2018-05-03 11:53 -  
[DIR]191+00.693 - TH 169/2018-05-03 12:02 -  
[DIR]191+00.251 - Oakridge Rd/2018-05-03 12:11 -  
[DIR]190+00.796 - 12th Ave N/2018-05-03 12:11 -  
[DIR]190+00.485 - 17th Ave N - CSAH 73 -Hopkins Crossroad/2018-05-03 12:17 -  
[DIR]190+00.030 - Shady Oak Rd/2018-05-03 12:18 -  
[DIR]188+00.039 - Williston Rd/2018-05-03 12:24 -  
[DIR]187+00.285 - Tonkawood Rd - Woodland Rd/2018-05-03 12:29 -  
[DIR]185+00.016 - Vine Hill Rd/2018-05-03 12:47 -  
[DIR]178+00.651 - Smithtown Rd/2018-05-03 12:48 -  
[DIR]184+00.530 - Brons Blvd - Old Market Rd/2018-05-03 12:50 -  
[DIR]182+00.739 - Oak St - CSAH 19/2018-05-03 12:52 -  
[DIR]181+00.951 - TH 41/2018-05-03 12:53 -  
[DIR]176+00.832 - CSAH 44/2018-05-03 12:54 -  
[DIR]183+00.649 - Excelsior Blvd - Christmas Lake Rd/2018-05-03 12:55 -  
[DIR]186+00.196 - CSAH 101/2018-05-03 12:56 -  
[DIR]175+00.483 - Kings Point Rd/2018-05-10 14:52 -